Weather History for Fort Leonard Wood, MO

Change the Weather History Date:

Friday, March 1, 2013

  Actual Average Record
Temperature  
Mean Temperature 28 °F -  
Max Temperature 30 °F 47 °F 80 °F (2006)
Min Temperature 26 °F 31 °F 13 °F (2009)
Degree Days  
Heating Degree Days 37    
Moisture  
Dew Point 25 °F    
Average Humidity 87    
Maximum Humidity 96    
Minimum Humidity 72    
Precipitation  
Precipitation 0.01 in - - ()
Sea Level Pressure  
Sea Level Pressure 30.19 in    
Wind  
Wind Speed 8 mph (NNW)    
Max Wind Speed 14 mph    
Max Gust Speed 17 mph    
Visibility 8 miles    
Events Snow    
Averages and records for this station are not official NWS values.
T = Trace of Precipitation, MM = Missing Value Source: NWS Daily Summary

Daily Weather History Graph

Daily Weather History Graph

Search for Another Location

Airport:

Trip Planner

Search our weather history database for the weather conditions in past years. The results will help you decide how hot, cold, wet, or windy it might be!

Date:

Astronomy

Mar. 01, 2013 Rise Set
Actual Time 6:39 AM CST 6:02 PM CST
Civil Twilight 6:13 AM CST 6:28 PM CST
Nautical Twilight 5:43 AM CST 6:59 PM CST
Astronomical Twilight 5:12 AM CST 7:29 PM CST
Moon 10:30 PM CST (3/1) 8:32 AM CST (3/1)
Length of Visible Light 12h 15m
Length of Day
11h 22m
Waning Gibbous, 83% of the Moon is Illuminated
Mar 1
Waning Gibbous
Mar 4
Last Quarter
Mar 11
New
Mar 19
First Quarter
Mar 27
Full

Hourly Weather History & Observations

Time (CST) Temp. Windchill Dew Point Humidity Pressure Visibility Wind Dir Wind Speed Gust Speed Precip Events Conditions
12:55 AM 29.5 °F 21.8 °F 25.5 °F 85% 30.13 in 10.0 mi WNW 8.1 mph - N/A   Overcast
1:55 AM 29.3 °F 23.2 °F 25.3 °F 85% 30.13 in 10.0 mi NW 5.8 mph - N/A   Overcast
2:55 AM 28.9 °F 22.8 °F 25.0 °F 85% 30.13 in 10.0 mi WNW 5.8 mph - N/A   Overcast
3:55 AM 28.8 °F 21.7 °F 24.8 °F 85% 30.13 in 10.0 mi WNW 6.9 mph - N/A   Overcast
4:37 AM 28.4 °F 21.2 °F 24.8 °F 86% 30.13 in 10.0 mi WNW 6.9 mph - N/A   Overcast
4:55 AM 28.4 °F 22.2 °F 24.8 °F 86% 30.13 in 10.0 mi NW 5.8 mph - 0.00 in   Overcast
5:08 AM 28.4 °F 20.4 °F 24.8 °F 86% 30.13 in 10.0 mi NW 8.1 mph - N/A   Overcast
5:55 AM 28.4 °F 21.2 °F 24.6 °F 86% 30.14 in 10.0 mi WNW 6.9 mph - 0.00 in   Overcast
6:55 AM 28.2 °F 21.0 °F 24.8 °F 87% 30.14 in 10.0 mi NW 6.9 mph - N/A   Overcast
7:21 AM 28.4 °F 20.4 °F 24.8 °F 86% 30.15 in 10.0 mi NW 8.1 mph - N/A   Overcast
7:26 AM 28.4 °F 19.7 °F 24.8 °F 86% 30.15 in 10.0 mi NW 9.2 mph - N/A   Overcast
7:30 AM 28.4 °F 22.2 °F 24.8 °F 86% 30.10 in 10.0 mi NW 5.8 mph - N/A Snow Light Snow
7:59 AM 28.2 °F 22.0 °F 24.6 °F 86% 30.22 in 10.0 mi NW 5.8 mph - 0.00 in Snow Light Snow
8:55 AM 28.2 °F 19.5 °F 24.6 °F 86% 30.17 in 10.0 mi NW 9.2 mph - 0.00 in Snow Light Snow
9:56 AM 28.2 °F 20.2 °F 24.4 °F 86% 30.17 in 10.0 mi NW 8.1 mph - 0.00 in Snow Light Snow
10:55 AM 29.1 °F 20.0 °F 24.1 °F 81% 30.18 in 10.0 mi NW 10.4 mph - 0.00 in Snow Light Snow
11:55 AM 29.7 °F 21.3 °F 23.5 °F 78% 30.17 in 10.0 mi WNW 9.2 mph - 0.00 in Snow Light Snow
12:55 PM 29.8 °F 21.5 °F 21.7 °F 72% 30.16 in 10.0 mi WNW 9.2 mph - 0.00 in   Overcast
1:11 PM 30.2 °F 21.9 °F 23.0 °F 75% 30.16 in 10.0 mi WNW 9.2 mph - N/A   Overcast
1:20 PM 30.2 °F 21.3 °F 23.0 °F 75% 30.16 in 10.0 mi WNW 10.4 mph - N/A   Overcast
1:30 PM 30.2 °F 23.4 °F 23.0 °F 75% 30.16 in 10.0 mi Variable 6.9 mph - N/A   Overcast
1:55 PM 30.0 °F 20.5 °F 22.8 °F 75% 30.16 in 6.0 mi NW 11.5 mph - 0.00 in Snow Light Snow
2:12 PM 30.2 °F 20.8 °F 23.0 °F 75% 30.16 in 5.0 mi NW 11.5 mph - N/A Snow Light Snow
2:22 PM 30.2 °F 21.3 °F 24.8 °F 80% 30.16 in 4.0 mi NNW 10.4 mph - N/A Snow Light Snow
2:35 PM 30.2 °F 21.3 °F 24.8 °F 80% 30.16 in 2.5 mi NW 10.4 mph - N/A Snow Light Snow
2:39 PM 28.4 °F 19.7 °F 26.6 °F 93% 30.16 in 1.8 mi NW 9.2 mph - N/A Snow Light Snow
2:45 PM 30.2 °F 24.3 °F 26.6 °F 86% 30.16 in 2.0 mi WNW 5.8 mph - N/A Snow Light Snow
2:50 PM 30.2 °F 22.6 °F 26.6 °F 86% 30.16 in 3.0 mi WNW 8.1 mph - N/A Snow Light Snow
2:55 PM 29.3 °F 20.2 °F 26.4 °F 89% 30.16 in 2.5 mi WNW 10.4 mph - 0.00 in Snow Light Snow
3:13 PM 30.2 °F 22.6 °F 26.6 °F 86% 30.16 in 3.0 mi WNW 8.1 mph - N/A Snow Light Snow
3:24 PM 30.2 °F 22.6 °F 26.6 °F 86% 30.16 in 4.0 mi WNW 8.1 mph - N/A Snow Light Snow
3:32 PM 28.4 °F 19.1 °F 26.6 °F 93% 30.17 in 4.0 mi WNW 10.4 mph - N/A Snow Light Snow
3:37 PM 28.4 °F 19.1 °F 26.6 °F 93% 30.17 in 4.0 mi WNW 10.4 mph - N/A Snow Light Snow
3:42 PM 28.4 °F 18.0 °F 26.6 °F 93% 30.17 in 4.0 mi WNW 12.7 mph - N/A Snow Light Snow
3:47 PM 28.4 °F 20.4 °F 26.6 °F 93% 30.17 in 3.0 mi WNW 8.1 mph - N/A Snow Light Snow
3:50 PM 28.4 °F 19.1 °F 26.6 °F 93% 30.17 in 3.0 mi WNW 10.4 mph - N/A Snow Light Snow
3:55 PM 29.3 °F 20.8 °F 27.0 °F 91% 30.17 in 3.0 mi WNW 9.2 mph - 0.01 in Snow Light Snow
4:55 PM 29.1 °F 21.3 °F 26.6 °F 90% 30.18 in 5.0 mi WNW 8.1 mph - 0.00 in Snow Light Snow
5:07 PM 28.4 °F 19.7 °F 26.6 °F 93% 30.18 in 8.0 mi NW 9.2 mph - N/A Snow Light Snow
5:55 PM 28.6 °F 21.5 °F 26.8 °F 93% 30.19 in 7.0 mi NW 6.9 mph - 0.00 in Snow Light Snow
6:55 PM 28.4 °F 20.4 °F 27.1 °F 95% 30.21 in 10.0 mi NW 8.1 mph - 0.00 in Snow Light Snow
7:02 PM 28.4 °F 19.7 °F 26.6 °F 93% 30.21 in 10.0 mi NW 9.2 mph - N/A Snow Light Snow
7:04 PM 28.4 °F 19.7 °F 26.6 °F 93% 30.21 in 10.0 mi NW 9.2 mph - N/A   Overcast
7:55 PM 28.4 °F 19.7 °F 27.1 °F 95% 30.21 in 10.0 mi NW 9.2 mph - 0.00 in   Overcast
8:48 PM 28.4 °F 20.4 °F 26.6 °F 93% 30.22 in 10.0 mi NNW 8.1 mph - N/A Snow Light Snow
8:55 PM 28.2 °F 20.2 °F 27.1 °F 96% 30.22 in 10.0 mi NNW 8.1 mph - 0.00 in Snow Light Snow
9:13 PM 28.4 °F 18.0 °F 24.8 °F 86% 30.22 in 10.0 mi North 12.7 mph 17.3 mph N/A   Overcast
9:16 PM 28.4 °F 19.7 °F 24.8 °F 86% 30.22 in 10.0 mi North 9.2 mph 17.3 mph N/A   Overcast
9:27 PM 28.4 °F 19.7 °F 24.8 °F 86% 30.23 in 10.0 mi NNW 9.2 mph - N/A   Overcast
9:46 PM 28.4 °F 18.0 °F 24.8 °F 86% 30.23 in 10.0 mi North 12.7 mph - N/A   Overcast
9:47 PM 28.4 °F 17.5 °F 24.8 °F 86% 30.23 in 10.0 mi North 13.8 mph - N/A   Overcast
9:55 PM 27.7 °F 17.6 °F 25.2 °F 90% 30.23 in 10.0 mi North 11.5 mph - 0.00 in Snow Light Snow
10:30 PM 26.6 °F 19.1 °F 24.8 °F 93% 30.24 in 9.0 mi North 6.9 mph - N/A Snow Light Snow
10:31 PM 26.6 °F 18.2 °F 24.8 °F 93% 30.24 in 9.0 mi North 8.1 mph - N/A Snow Light Snow
10:40 PM 26.6 °F 16.8 °F 24.8 °F 93% 30.24 in 10.0 mi North 10.4 mph - N/A Snow Light Snow
10:47 PM 26.6 °F 17.5 °F 24.8 °F 93% 30.24 in 9.0 mi North 9.2 mph - N/A Snow Light Snow
10:55 PM 27.0 °F 18.0 °F 25.0 °F 92% 30.24 in 8.0 mi North 9.2 mph - 0.00 in Snow Light Snow
10:58 PM 26.6 °F 16.2 °F 24.8 °F 93% 30.23 in 8.0 mi North 11.5 mph - N/A Snow Light Snow
11:05 PM 26.6 °F 16.2 °F 23.0 °F 86% 30.24 in 8.0 mi North 11.5 mph - N/A Snow Light Snow
11:07 PM 26.6 °F 17.5 °F 23.0 °F 86% 30.24 in 8.0 mi North 9.2 mph - N/A Snow Light Snow
11:08 PM 26.6 °F 17.5 °F 23.0 °F 86% 30.23 in 8.0 mi North 9.2 mph - N/A Snow Light Snow
11:09 PM 26.6 °F 17.5 °F 23.0 °F 86% 30.24 in 8.0 mi North 9.2 mph - N/A Snow Light Snow
11:11 PM 26.6 °F 16.8 °F 23.0 °F 86% 30.24 in 8.0 mi North 10.4 mph - N/A Snow Light Snow
11:12 PM 26.6 °F 16.8 °F 23.0 °F 86% 30.24 in 8.0 mi North 10.4 mph - N/A Snow Light Snow
11:14 PM 26.6 °F 17.5 °F 23.0 °F 86% 30.24 in 9.0 mi North 9.2 mph - N/A Snow Light Snow
11:16 PM 26.6 °F 17.5 °F 23.0 °F 86% 30.24 in 9.0 mi North 9.2 mph - N/A Snow Light Snow
11:17 PM 26.6 °F 16.8 °F 24.8 °F 93% 30.24 in 9.0 mi North 10.4 mph - N/A Snow Light Snow
11:18 PM 26.6 °F 17.5 °F 24.8 °F 93% 30.24 in 9.0 mi North 9.2 mph - N/A Snow Light Snow
11:32 PM 26.6 °F 16.8 °F 23.0 °F 86% 30.24 in 10.0 mi North 10.4 mph - N/A Snow Light Snow
11:35 PM 26.6 °F 16.8 °F 23.0 °F 86% 30.24 in 10.0 mi North 10.4 mph - N/A Snow Light Snow
11:36 PM 26.6 °F 17.5 °F 23.0 °F 86% 30.24 in 10.0 mi North 9.2 mph - N/A Snow Light Snow
11:37 PM 26.6 °F 17.5 °F 23.0 °F 86% 30.24 in 10.0 mi North 9.2 mph - N/A Snow Light Snow
11:38 PM 26.6 °F 17.5 °F 23.0 °F 86% 30.24 in 10.0 mi North 9.2 mph - N/A Snow Light Snow
11:42 PM 26.6 °F 18.2 °F 23.0 °F 86% 30.24 in 10.0 mi North 8.1 mph - N/A   Overcast
11:43 PM 26.6 °F 17.5 °F 23.0 °F 86% 30.24 in 10.0 mi North 9.2 mph - N/A   Overcast
11:55 PM 26.2 °F 18.6 °F 23.9 °F 91% 30.24 in 8.0 mi North 6.9 mph - 0.00 in Snow Light Snow
11:56 PM 26.6 °F 18.2 °F 24.8 °F 93% 30.24 in 8.0 mi North 8.1 mph - N/A Snow Light Snow
11:58 PM 26.6 °F 18.2 °F 23.0 °F 86% 30.24 in 8.0 mi North 8.1 mph - N/A Snow Light Snow